This is the latest recevied weather packets stored in our database for station/object WB9ZLM. If no packets are shown the sender has not sent any weather packets the latest 10 day(s).
| Time | Temp. | Humidity | Pressure | Rain* | Wind** | Luminosity | Snow |
|---|---|---|---|---|---|---|---|
| 1777954621 | 16.11° C | 72% | 1005 hPa | 0 mm | - | - | - |
| 1777954560 | 16.11° C | 72% | 1005 hPa | 0 mm | - | - | - |
| 1777953721 | 16.11° C | 73% | 1014.1 hPa | 0 mm | - | - | - |
| 1777953660 | 16.11° C | 73% | 1014.1 hPa | 0 mm | - | - | - |
| 1777952821 | 16.67° C | 75% | 1004.8 hPa | 0 mm | - | - | - |
| 1777952760 | 16.67° C | 75% | 1004.8 hPa | 0 mm | - | - | - |
| 1777951921 | 16.67° C | 77% | 1004.5 hPa | 0 mm | - | - | - |
| 1777951860 | 16.67° C | 77% | 1004.5 hPa | 0 mm | - | - | - |
| 1777951022 | 16.67° C | 75% | 1004.2 hPa | 0 mm | - | - | - |
| 1777950960 | 16.67° C | 75% | 1004.2 hPa | 0 mm | - | - | - |
| 1777950122 | 16.67° C | 76% | 1004.3 hPa | 0 mm | - | - | - |
| 1777950060 | 16.67° C | 76% | 1004.3 hPa | 0 mm | - | - | - |
| 1777949222 | 16.67° C | 78% | 1004.2 hPa | 0 mm | - | - | - |
| 1777949160 | 16.67° C | 78% | 1004.2 hPa | 0 mm | - | - | - |
| 1777948321 | 16.67° C | 78% | 1004.8 hPa | 0 mm | - | - | - |
| 1777948260 | 16.67° C | 78% | 1004.8 hPa | 0 mm | - | - | - |
| 1777947421 | 16.67° C | 75% | 1004.6 hPa | 0 mm | - | - | - |
| 1777947360 | 16.67° C | 75% | 1004.6 hPa | 0 mm | - | - | - |
| 1777946521 | 17.22° C | 71% | 1004.3 hPa | 0 mm | - | - | - |
| 1777946460 | 17.22° C | 71% | 1004.3 hPa | 0 mm | - | - | - |
| 1777945621 | 17.22° C | 71% | 1005.3 hPa | 0 mm | - | - | - |
| 1777945560 | 17.22° C | 71% | 1005.3 hPa | 0 mm | - | - | - |
| 1777944722 | 17.78° C | 69% | 1005 hPa | 0 mm | - | - | - |
| 1777944660 | 17.78° C | 69% | 1005 hPa | 0 mm | - | - | - |
| 1777943821 | 20° C | 59% | 1003.1 hPa | 0 mm | - | - | - |
* Rain latest hour (hover to see other rain measurements)
** Current wind speed in m/s (hover to see current wind gust speed)